Terug naar catalogus

ZHUHAI-1 03E

ActiefWetenschapSSO
NORAD 44539·PAYLOAD·🇨🇳 China

Gelanceerd Sep 19, 2019 vanaf Jiuquan Satellite Launch Center

Loading…

Volgende Passages (komende 24 uur)

TLE

VersSource: Space-Track

Epoch: Sep 14, 2026, 21:38 UTC

1 44539U 19060F   26257.90202025  .00015988  00000-0  35575-3 0  9992
2 44539  97.5730  51.2112 0006388  64.2252 295.9654 15.43709212389594

Volg ZHUHAI-1 03E in realtime met AllMySat

Download on the App Store